Regional Weather Roundup
Issued by NWS Jackson, KY

Home | Current Version | Previous Version | Text Only | Print | Product List | Glossary On
Versions: 1 2 3 4 5 6 7 8 9 10 11 12 13 14 15 16 17 18 19 20 21 22 23 24 25 26 27 28 29 30 31 32 33 34 35 36 37 38 39 40 41 42 43 44 45 46 47 48 49 50
000
ASUS43 KJKL 070410
RWRJKL

EAST KENTUCKY HOURLY WEATHER ROUNDUP
NATIONAL WEATHER SERVICE JACKSON KY
1100 PM EST FRI MAR 06 2015

NOTE: "FAIR" INDICATES FEW OR NO CLOUDS BELOW 12,000 FEET WITH
NO SIGNIFICANT WEATHER AND/OR OBSTRUCTIONS TO VISIBILITY.

* THESE REPORTS ARE NOT UNDER NWS QUALITY CONTROL AND MAY NOT
  REPORT WEATHER SUCH AS PRECIPITATION AND FOG.

KYZ079-080-083-085-087-088-110-112-115-119-120-070500
...EASTERN KENTUCKY...

CITY           SKY/WX    TMP DP  RH WIND       PRES   REMARKS
JACKSON        CLEAR     25  11  55 SW3       30.39S
LONDON         CLEAR     22  13  68 CALM      30.42R
SOMERSET*      PTCLDY    21  16  79 CALM      30.46S
MONTICELLO*    CLEAR     14  11  88 CALM      30.48R
MIDDLESBORO*   CLEAR     24  22  92 CALM      30.44S
HAZARD APT*    CLEAR     27  12  54 CALM      30.40S
BLACK MTN*       N/A     18  16  93 S8          N/A  WCI   7
PIKEVILLE APT* CLEAR     25  12  58 CALM      30.40R
BIG SANDY*     CLEAR     27  13  54 SW3       30.40S
MOREHEAD APT*  CLEAR     19  12  73 CALM      30.43R
$$

KYZ035-036-041-042-044-050-067-078-099-070500
...CENTRAL KENTUCKY...

CITY           SKY/WX    TMP DP  RH WIND       PRES   REMARKS
MT STERLING*   MOCLDY    18  12  79 SW6       30.43S WCI   9
FLEMING/MASON* CLEAR     14   9  79 S9        30.42S WCI   2
DANVILLE*      CLEAR     19  12  73 S3        30.43S
RICHMOND*      CLEAR     23  10  58 SW6       30.42S WCI  16
LEXINGTON      PTCLDY    20  10  65 S8        30.41S WCI  10
FRANKFORT      CLEAR     20  10  65 S7        30.40S WCI  11
$$

KYZ091>093-OHZ055-061-077-WVZ005-015-034-035-042-070500
...SOUTHERN OHIO/WEST VIRGINIA...

CITY           SKY/WX    TMP DP  RH WIND       PRES   REMARKS
COVINGTON      CLEAR     22  13  68 S10       30.36S WCI  11
COLUMBUS       CLEAR     19  10  68 S9        30.35F WCI   8
DAYTON         CLEAR     24  13  62 SW16      30.31S WCI  11
WILMINGTON     CLEAR     17   9  70 S12       30.33F WCI   4
HUNTINGTON     CLEAR     17  16  95 CALM      30.41R FOG
CHARLESTON     CLEAR     19  15  84 CALM      30.40R
PINEVILLE*     CLEAR     19  19  97 MISG      30.42S
BECKLEY        CLEAR     22   9  57 SW3       30.31S
BLUEFIELD      CLEAR     23  14  68 W7        30.30S WCI  15
$$

VAZ002-007-008-TNZ017-027-036-066-071-070500
...SOUTHWEST VIRGINIA/EAST TENNESSEE...

CITY           SKY/WX    TMP DP  RH WIND       PRES   REMARKS
WISE*          CLEAR     23  14  68 SW6       30.34S WCI  16
JONESVILLE*    CLEAR     19  19 100 CALM      30.44S
ABINGDON*      CLEAR     27  19  70 CALM      30.39S
BRISTOL        PTCLDY    25  17  72 CALM      30.41F
KNOXVILLE      CLEAR     30  20  66 CALM      30.45S
OAK RIDGE      CLEAR     30  22  72 W3        30.46S
CROSSVILLE       N/A     25  18  74 SW3       30.41S
NASHVILLE      CLEAR     27  20  75 S5        30.48S WCI  22
$$

...KEY TO REMARKS...
VSB - VISIBILITY IN MILES
WCI - WIND CHILL INDEX
HX  - HEAT INDEX

$$


USA.gov is the U.S. government's official web portal to all federal, state and local government web resources and services.